Location: Newark
(48.6767°N, 1.3256°E)
Time: 07:20:24
(UTC+00:00)

ISS - Pass Details

Date: 27 November 2019
Orbit: 411 x 421 km, 51.6° (Epoch: 16 December)

Event Time Altitude Azimuth Distance (km) Brightness Sun altitude
Rises 18:10:15 0° 258° (WSW) 2,355 1.7 -20.2°
Reaches altitude 10° 18:12:21 10° 261° (W) 1,495 0.2 -20.6°
Enters shadow 18:15:28 64° 316° (NW) 469 -3.5 -21.1°
